This is the latest recevied weather packets stored in our database for station/object KY4EF. If no packets are shown the sender has not sent any weather packets the latest 10 day(s).
| Time | Temp. | Humidity | Pressure | Rain* | Wind** | Luminosity | Snow |
|---|---|---|---|---|---|---|---|
| 1778181411 | 20.56° C | 66% | 1011.5 hPa | 0 mm | - | 553 W/m² | - |
| 1778181109 | 20.56° C | 65% | 1011.2 hPa | 0 mm | - | 805 W/m² | - |
| 1778180806 | 19.44° C | 69% | 1011.1 hPa | 0 mm | - | 806 W/m² | - |
| 1778180505 | 20.56° C | 67% | 1011.2 hPa | 0 mm | - | 787 W/m² | - |
| 1778180203 | 20° C | 67% | 1011 hPa | 0 mm | - | 783 W/m² | - |
| 1778179899 | 19.44° C | 70% | 1011.1 hPa | 0 mm | - | 799 W/m² | - |
| 1778179597 | 17.22° C | 77% | 1011.2 hPa | 0 mm | - | 934 W/m² | - |
| 1778179295 | 17.22° C | 77% | 1011.5 hPa | 0 mm | - | 319 W/m² | - |
| 1778178991 | 16.67° C | 77% | 1011.5 hPa | 0 mm | - | 674 W/m² | - |
| 1778178687 | 16.67° C | 80% | 1011.7 hPa | 0 mm | - | 367 W/m² | - |
| 1778178384 | 16.67° C | 80% | 1011.7 hPa | 0 mm | - | 266 W/m² | - |
| 1778178080 | 16.11° C | 80% | 1011.5 hPa | 0 mm | - | 520 W/m² | - |
| 1778177777 | 16.11° C | 81% | 1011.6 hPa | 0 mm | - | 391 W/m² | - |
| 1778177473 | 17.78° C | 76% | 1011.4 hPa | 0 mm | - | 377 W/m² | - |
| 1778177170 | 17.22° C | 80% | 1011.4 hPa | 0 mm | - | 473 W/m² | - |
| 1778176867 | 16.67° C | 79% | 1011.6 hPa | 0 mm | - | 464 W/m² | - |
| 1778176563 | 16.67° C | 78% | 1011.4 hPa | 0 mm | - | 460 W/m² | - |
| 1778176260 | 17.78° C | 76% | 1011.6 hPa | 0 mm | - | 261 W/m² | - |
| 1778175957 | 18.33° C | 73% | 1011.6 hPa | 0 mm | - | 251 W/m² | - |
| 1778175655 | 18.89° C | 72% | 1011.6 hPa | 0 mm | - | 463 W/m² | - |
| 1778175352 | 17.78° C | 79% | 1011.7 hPa | 0 mm | - | 558 W/m² | - |
| 1778175049 | 16.11° C | 81% | 1011.6 hPa | 0 mm | - | 407 W/m² | - |
| 1778174745 | 15.56° C | 84% | 1012 hPa | 0 mm | - | 318 W/m² | - |
| 1778174442 | 15° C | 85% | 1011.9 hPa | 0 mm | - | 274 W/m² | - |
| 1778174137 | 15° C | 86% | 1011.9 hPa | 0 mm | - | 241 W/m² | - |
* Rain latest hour (hover to see other rain measurements)
** Current wind speed in m/s (hover to see current wind gust speed)